Regional Weather Roundup
Issued by NWS

Home | Current Version | Previous Version | Text Only | Print | Product List | Glossary Off
Versions: 1 2 3 4 5 6 7 8 9 10 11 12 13 14 15 16 17 18 19 20 21 22 23 24 25 26 27 28 29 30 31 32 33 34 35 36 37 38 39 40 41 42 43 44 45 46 47 48 49 50

000
ASUS45 KSLC 241510
RWRUT

UTAH REGIONAL WEATHER ROUNDUP
NATIONAL WEATHER SERVICE SALT LAKE CITY UT
900 AM MDT FRI MAR 24 2017

UTZ001>011-023>025-241600-

NORTHERN UTAH

CITY           SKY/WX    TMP DP  RH WIND       PRES   REMARKS
BRIGHAM CITY     N/A     35  33  90 CALM      30.23R
HILL AFB       SUNNY     37  31  78 E13       30.22R WCI  28
LOGAN          SUNNY     37  33  85 CALM      30.22R
OGDEN          SUNNY     37  33  85 S9        30.22R WCI  30
SALT LAKE CITY MOSUNNY   39  33  79 SE7       30.22R WCI  34
WENDOVER       SUNNY     37  25  61 NE6       30.20R WCI  32
HEBER CITY     SUNNY     36  28  75 CALM      30.23R

$$

UTZ011>015-024>027-241600-

CENTRAL/NORTHEAST UTAH

CITY           SKY/WX    TMP DP  RH WIND       PRES   REMARKS
PROVO AIRPORT  SUNNY     39  37  92 E5        30.26R
MOAB/CANYONLAN SUNNY     49  32  52 NW8       30.15R
DELTA          SUNNY     34  34 100 E3        30.25R
PRICE          SUNNY     42  26  53 W8        30.19R
RICHFIELD      SUNNY     34  32  93 SW2       30.29R
ROOSEVELT      SUNNY     37  34  87 S3        30.22S
VERNAL         PTSUNNY   44  33  65 SW7       30.20R

$$

UTZ013>016-019>022-027-241600-

SOUTHERN UTAH

CITY           SKY/WX    TMP DP  RH WIND       PRES   REMARKS
BRYCE CANYON   SUNNY     32  22  66 NW8       30.25R WCI  25
CEDAR CITY     SUNNY     33  29  85 NE5       30.22F WCI  29
MILFORD        SUNNY    N/A N/A N/A S8        30.24S
ST GEORGE      SUNNY     43  37  79 CALM      30.25R
HANKSVILLE     SUNNY     43  30  61 SE6       30.22R
KANAB          SUNNY     39  30  70 N1        30.28R
BLANDING       SUNNY     47  27  46 NW13G20   30.18R

$$

REGIONAL REPORTS     COLORADO/ARIZONA

CITY           SKY/WX    TMP DP  RH WIND       PRES   REMARKS
CRAIG, CO      SUNNY     40  30  67 N17       30.15R WCI  31
GRAND JUNCTION MOSUNNY   47  33  58 NW8       30.14R
RIFLE, CO      CLOUDY    47  30  51 NW8       30.13R
MONTROSE, CO   CLOUDY    42  32  67 N5        30.15R
CORTEZ, CO     SUNNY     43  32  65 NW15G21   30.08R
COLORADO CITY    N/A     36  34  93 CALM      30.26S
PAGE, AZ       SUNNY     49  32  52 NW7       30.19R
GRAND CANYON   SUNNY     36  32  85 CALM      30.25R
KINGMAN, AZ    SUNNY     48  32  53 CALM      30.22R
FLAGSTAFF, AZ  SUNNY     37  20  50 VRB3      30.23R

$$

REGIONAL REPORTS    NEVADA/IDAHO/WYOMING

CITY           SKY/WX    TMP DP  RH WIND       PRES   REMARKS
LAS VEGAS, NV  SUNNY     55  35  47 CALM      30.19R
ELY, NY        SUNNY     28  23  81 S10       30.22R WCI  19
ELKO, NV       PTSUNNY   34  29  82 CALM      30.15S
POCATELLO, ID  SUNNY     43  27  53 CALM      30.17R
BURLEY, ID     SUNNY     40  27  59 S7        30.12S
FORT BRIDGER,    N/A     36  29  75 W8        30.24R WCI  30
EVANSTON, WY   CLOUDY    30  26  85 S3        30.21R
ROCK SPRINGS,  CLOUDY    38  33  82 SW6       30.20R WCI  33

$$



USA.gov is the U.S. government's official web portal to all federal, state and local government web resources and services.